Simultaneous Nadir Overpasses (SNOs) Predictions

Prediction of SNOs between METOP-A and TERRA Satellite Orbit:

Table of predicted SNOs for the next 14.0 days since TLE Epoch: 6/16/2017
Index Date (METOP-A) Time (METOP-A) Lat,Lon (METOP-A) SZA (METOP-A ) Date (TERRA) Time (TERRA) Lat,Lon (TERRA) SZA (TERRA ) Distance(km) Time Diff (sec)
1 06/16/2017 23:34:11 -81.34, 54.47 119.05 06/16/2017 23:34:26 -81.34, 54.42 119.05 0.76 15
2 06/17/2017 00:24:51 81.35,-137.75 61.01 06/17/2017 00:23:52 81.35,-137.84 60.97 1.55 59
3 06/19/2017 19:08:31 -81.34, 120.80 119.13 06/19/2017 19:08:40 -81.35, 120.92 119.11 1.93 9
4 06/19/2017 19:59:11 81.35, -71.44 60.93 06/19/2017 19:58:06 81.35, -71.37 60.90 1.14 65
5 06/22/2017 14:42:51 -81.35,-172.48 119.11 06/22/2017 14:42:55 -81.35,-172.63 119.13 2.39 4
6 06/22/2017 15:33:31 81.35, -4.75 60.94 06/22/2017 15:32:21 81.35, -4.94 60.89 3.12 70
7 06/25/2017 09:26:32 81.34, 86.25 60.89 06/25/2017 09:27:43 81.35, 86.16 60.91 1.68 71
8 06/25/2017 10:17:12 -81.35,-106.17 119.09 06/25/2017 10:17:10 -81.35,-106.20 119.09 0.49 2
9 06/28/2017 05:00:52 81.34, 152.52 60.96 06/28/2017 05:01:57 81.34, 152.52 60.99 0.10 65




NCC Satellite Simultaneous Nadir Overpasses (SNOs) Prediction Service
